This is the latest recevied weather packets stored in our database for station/object CT7BNL-13. If no packets are shown the sender has not sent any weather packets the latest 10 day(s).
| Time | Temp. | Humidity | Pressure | Rain* | Wind** | Luminosity | Snow |
|---|---|---|---|---|---|---|---|
| 1788162565 | 14.44° C | 97% | 1028.2 hPa | 0 mm | - | 100 W/m² | - |
| 1788161665 | 13.89° C | 97% | 1028.3 hPa | 0 mm | - | 85 W/m² | - |
| 1788160766 | 13.89° C | 97% | 1028.3 hPa | 0 mm | - | 56 W/m² | - |
| 1788159865 | 13.89° C | 97% | 1028.1 hPa | 0 mm | - | 44 W/m² | - |
| 1788158966 | 13.89° C | 97% | 1028.1 hPa | 0 mm | - | 30 W/m² | - |
| 1788158065 | 13.89° C | 97% | 1027.8 hPa | 0 mm | - | 20 W/m² | - |
| 1788157165 | 13.89° C | 97% | 1027.8 hPa | 0 mm | - | 9 W/m² | - |
| 1788156265 | 13.89° C | 97% | 1027.5 hPa | 0 mm | - | 3 W/m² | - |
| 1788155365 | 13.89° C | 97% | 1027.4 hPa | 0 mm | - | 0 W/m² | - |
| 1788154465 | 13.89° C | 97% | 1027.9 hPa | 0 mm | - | 0 W/m² | - |
| 1788153566 | 13.89° C | 97% | 1027.9 hPa | 0 mm | - | 0 W/m² | - |
| 1788152664 | 13.89° C | 97% | 1027.7 hPa | 0 mm | - | 0 W/m² | - |
| 1788151765 | 13.89° C | 97% | 1027.9 hPa | 0 mm | - | 0 W/m² | - |
| 1788150865 | 13.89° C | 97% | 1027.4 hPa | 0 mm | - | 0 W/m² | - |
| 1788149964 | 13.33° C | 97% | 1027.8 hPa | 0 mm | - | 0 W/m² | - |
| 1788149065 | 13.33° C | 97% | 1028 hPa | 0 mm | - | 0 W/m² | - |
| 1788148165 | 13.33° C | 97% | 1027.9 hPa | 0 mm | - | 0 W/m² | - |
| 1788147266 | 13.33° C | 97% | 1027.8 hPa | 0 mm | - | 0 W/m² | - |
| 1788146365 | 13.33° C | 97% | 1027.9 hPa | 0 mm | - | 0 W/m² | - |
| 1788145464 | 13.33° C | 96% | 1028 hPa | 0 mm | - | 0 W/m² | - |
| 1788144565 | 13.33° C | 96% | 1028 hPa | 0 mm | - | 0 W/m² | - |
| 1788143665 | 13.33° C | 96% | 1027.8 hPa | 0 mm | - | 0 W/m² | - |
| 1788142764 | 13.33° C | 96% | 1027.9 hPa | 0 mm | - | 0 W/m² | - |
| 1788141884 | 13.89° C | 96% | 1027.9 hPa | 0 mm | - | 0 W/m² | - |
| 1788140965 | 13.89° C | 96% | 1028 hPa | 0 mm | - | 0 W/m² | - |
* Rain latest hour (hover to see other rain measurements)
** Current wind speed in m/s (hover to see current wind gust speed)